Вернуться в каталог

COSMOS 397 DEB *

АктивенLEO
NORAD 5529·DEBRIS·🇷🇺 Russia

Запущен Feb 25, 1971 с Baikonur Cosmodrome

Loading…

Ближайшие Пролёты (ближайшие 24 часа)

TLE

СвежийSource: Space-Track

Эпоха: Sep 14, 2026, 15:23 UTC

1 05529U 71015BT  26257.64160953  .00001147  00000-0  36574-3 0  9992
2 05529  66.8398 125.8318 0045917  16.1822 344.0737 14.42718147872258

Отслеживайте COSMOS 397 DEB * в реальном времени с AllMySat

Download on the App Store